Wind_Speed
21 20 20 20 20 20 20 19 18 17 17 17 17 17 17 17 15 14 13 12 10 9 8 7 7 6 5 5 4 3 3 3 4 6 7 8 10 12 14 14 14 13 12 11 10 9 8 7 6 6 6 10 13 15 14 15 16 16 16 15 15 15 16 17 18 18 19 20 22 24 24 25 25 25 24 22 21 20 19 19 18 17 17 17 16
24 23 22 22 21 21 21 21 21 20 18 17 17 17 17 17 16 15 14 13 11 10 9 8 7 7 6 6 5 4 3 4 5 7 7 7 8 10 12 13 14 14 13 12 11 9 8 7 5 3 2 5 9 10 10 11 13 13 14 15 15 15 16 17 18 17 17 17 19 20 21 22 22 22 22 21 20 19 18 17 17 16 15 14 13
28 26 25 24 24 24 23 23 23 22 21 20 19 18 18 18 17 17 15 14 13 11 11 10 9 9 8 8 7 6 5 5 6 8 9 8 8 10 11 12 13 14 13 13 12 12 11 9 8 5 1 2 5 6 8 9 9 10 11 12 13 14 14 15 14 14 14 16 18 17 17 18 19 20 20 19 19 18 16 15 15 15 14 13 12
31 30 28 26 26 26 25 25 24 24 23 22 21 20 20 19 18 18 17 16 15 14 13 12 12 11 11 10 9 8 7 7 9 9 10 10 9 9 11 12 12 13 12 12 12 13 12 11 10 6 3 3 3 4 5 5 6 8 8 9 9 10 12 12 11 11 11 13 16 17 15 15 17 18 18 17 17 17 16 14 13 13 12 12 12
33 32 31 30 29 27 26 26 25 25 24 24 23 23 21 20 19 19 18 18 18 17 16 15 14 13 13 12 10 9 9 9 10 11 12 11 10 9 9 10 10 10 10 11 12 13 13 11 9 7 5 4 4 4 5 5 5 6 8 9 8 8 8 10 8 8 10 9 13 15 14 16 18 18 18 17 16 14 14 14 13 12 11 10 10
36 35 33 32 31 29 28 26 26 25 24 24 24 24 23 22 21 20 19 19 19 19 18 17 16 15 14 13 11 11 11 11 12 14 13 12 11 10 9 8 8 8 8 9 12 13 12 10 9 8 7 6 6 6 6 7 7 7 8 10 10 9 8 8 6 5 8 7 11 12 10 10 13 14 16 17 16 14 14 13 12 12 11 10 9
39 38 36 35 33 31 30 28 27 26 25 25 25 25 24 23 23 22 20 20 20 19 19 19 18 17 15 13 12 12 13 13 15 16 16 14 13 12 11 9 7 8 9 10 12 11 11 11 10 9 9 9 9 9 10 10 9 9 10 10 10 11 10 10 10 7 6 6 10 12 9 6 5 7 11 14 15 15 16 16 14 12 12 11 10
42 41 39 37 36 34 32 30 29 28 27 27 27 26 26 25 25 24 23 22 20 19 19 19 19 17 16 15 15 14 14 15 16 18 18 16 14 13 12 10 9 10 11 12 12 11 13 14 12 12 14 14 13 11 11 11 11 10 12 13 13 14 14 13 13 11 8 7 8 9 10 10 8 7 9 12 13 14 16 18 17 14 14 13 13
46 44 42 40 38 36 34 32 31 31 30 29 29 28 27 26 26 25 24 23 22 21 20 20 18 16 16 16 16 16 16 17 17 18 19 18 17 15 14 13 12 12 14 15 15 15 16 16 14 15 17 18 15 13 12 12 12 12 14 15 16 17 15 13 10 8 9 11 11 9 9 11 13 13 12 12 14 15 17 18 17 16 16 16 17
49 47 45 43 40 37 36 35 34 34 33 33 32 31 29 28 28 27 26 25 24 23 22 21 19 17 17 16 16 17 17 17 17 17 18 19 19 19 18 17 16 16 17 18 19 20 19 17 16 17 19 19 18 15 14 14 14 15 17 18 19 19 16 14 12 12 13 16 17 14 11 12 16 18 16 15 16 16 15 14 17 18 18 19 19
52 51 48 46 42 40 39 38 37 37 37 36 35 34 32 31 30 29 28 27 27 26 25 24 22 20 19 19 18 18 18 18 18 18 18 19 19 20 19 19 19 20 21 21 22 23 22 20 20 20 19 19 19 17 17 18 18 19 20 21 21 21 20 18 18 18 18 19 21 20 17 16 18 20 19 18 17 18 17 17 19 18 18 20 22
56 54 52 49 46 43 42 41 40 40 39 38 37 35 34 33 32 31 30 29 28 28 27 26 25 24 24 23 22 21 21 21 21 21 20 20 21 21 21 21 21 22 23 24 25 25 25 24 23 21 19 20 21 21 21 22 23 24 25 24 23 23 21 20 19 21 22 23 24 24 23 23 23 24 23 21 20 22 23 23 21 18 17 19 21
60 58 55 52 50 48 46 45 44 42 41 40 38 36 35 34 34 33 32 31 30 30 30 29 28 28 27 26 25 25 24 24 24 24 24 23 23 23 23 24 24 24 25 25 26 26 25 25 25 24 25 25 25 25 25 26 26 28 28 27 27 26 26 24 23 22 22 22 23 24 26 27 27 28 27 26 26 27 26 25 23 22 22 22 22
62 60 58 56 54 51 49 48 47 45 43 42 40 39 37 36 35 34 34 33 33 33 32 31 31 30 30 29 28 28 28 27 27 27 27 26 26 26 27 27 26 26 26 27 27 27 27 27 28 29 30 29 28 28 27 28 28 29 29 30 32 32 32 31 31 29 27 25 24 25 26 27 28 29 30 30 31 32 31 29 28 28 29 29 28
62 60 59 58 56 54 52 51 50 48 46 44 42 41 40 38 37 37 36 36 35 34 33 33 33 33 33 32 32 32 32 30 30 30 29 29 29 29 30 30 30 30 29 30 30 30 30 31 32 32 32 31 30 30 28 28 28 29 31 32 33 34 35 35 36 35 33 31 31 30 30 29 30 30 31 32 33 34 34 34 34 34 34 34 34
62 61 61 60 58 57 55 53 52 50 49 47 45 43 42 41 41 40 39 37 36 35 34 34 34 34 34 35 35 36 35 33 33 33 32 31 32 32 33 33 33 33 33 34 35 34 34 35 35 35 35 34 33 32 30 29 29 29 31 33 33 34 35 35 36 36 35 35 36 36 34 34 34 35 34 35 35 35 36 37 38 38 38 38 38
64 63 62 62 60 58 57 56 54 52 51 50 49 47 46 45 44 42 41 40 39 38 37 36 35 35 35 35 36 38 37 36 35 34 34 34 34 35 35 35 36 37 37 38 39 39 39 39 39 39 38 37 37 37 34 32 30 28 31 35 36 34 34 34 36 38 38 39 40 40 40 40 40 41 40 40 40 40 40 40 40 41 41 41 41
69 66 65 63 61 60 59 58 56 55 54 53 52 51 49 47 46 45 44 44 42 41 40 40 39 38 37 37 38 39 39 38 37 36 35 35 36 37 37 37 38 38 39 41 41 39 39 39 38 39 39 39 40 40 38 35 34 32 34 38 38 37 37 38 41 44 45 44 43 42 42 44 44 44 45 45 45 44 44 44 44 43 43 44 44
74 71 67 64 63 62 61 59 58 57 57 56 55 54 52 50 50 49 47 45 44 44 43 43 42 41 41 42 43 43 41 40 39 39 39 39 40 41 40 39 38 38 39 38 37 36 36 36 37 38 39 39 40 40 39 38 39 39 39 41 42 42 43 43 46 48 48 46 44 44 44 45 46 47 48 48 48 48 47 47 47 47 46 46 47
74 73 69 63 61 62 62 62 61 59 58 59 59 57 55 54 53 52 50 47 47 47 46 44 44 44 44 45 47 47 46 45 44 44 44 44 43 43 42 40 39 39 39 37 36 38 39 39 40 40 40 41 42 42 41 41 43 45 45 45 46 47 47 46 47 48 48 47 47 47 48 48 48 49 50 51 51 50 48 47 48 49 49 49 49
72 73 72 67 64 62 61 63 64 60 57 59 61 60 58 56 56 55 53 51 50 48 45 43 44 46 47 48 48 49 49 48 46 46 45 44 44 43 42 41 41 42 41 41 41 43 43 43 44 44 43 44 45 47 48 47 48 49 50 50 50 49 47 46 46 48 49 51 51 51 51 52 52 52 53 53 53 52 50 49 49 50 50 51 51
70 72 74 72 68 64 60 60 62 62 60 60 61 61 61 59 57 56 54 52 51 49 46 44 45 46 47 47 47 47 47 47 47 46 46 45 45 46 46 46 46 46 46 46 47 48 48 48 48 47 47 47 49 50 52 52 51 52 54 54 54 52 50 50 50 51 52 53 54 55 55 56 56 56 56 56 56 56 55 55 55 55 55 55 55
70 70 72 72 69 66 64 62 61 61 61 62 62 62 62 62 60 57 55 53 51 50 49 48 47 48 49 48 45 43 43 44 46 48 48 47 46 48 50 51 51 51 52 52 52 53 53 53 52 51 50 49 49 50 51 51 51 53 56 56 56 54 53 53 53 54 54 54 55 57 58 60 61 62 62 61 60 60 61 61 62 63 63 62 61
70 70 71 73 72 70 68 66 64 62 61 62 63 62 63 63 61 58 56 54 52 51 51 50 48 48 50 49 46 44 44 44 45 48 51 51 50 51 53 55 54 55 57 58 59 59 60 60 59 58 57 55 55 55 56 55 55 56 58 58 57 56 56 55 55 57 58 59 60 61 61 62 63 65 66 66 66 66 66 66 66 66 67 66 66
71 71 71 72 74 74 72 69 67 66 64 63 63 63 63 63 61 59 57 57 56 56 55 54 52 52 52 51 47 45 46 47 47 48 51 54 55 55 56 57 58 59 61 63 63 64 64 64 63 63 63 62 62 62 63 63 62 62 63 64 63 62 63 64 65 65 64 63 64 64 65 66 67 67 68 69 69 70 69 69 70 70 69 69 69
70 71 71 72 73 76 76 72 68 66 65 64 64 64 64 64 64 63 60 59 61 63 62 60 59 58 58 57 53 49 49 51 51 51 53 55 57 58 59 61 63 65 67 67 66 67 67 68 68 68 68 68 68 68 68 68 68 69 70 71 71 70 70 70 71 71 70 69 70 72 73 74 74 74 74 74 74 74 74 74 74 74 74 73 73
69 70 72 73 73 75 77 76 72 67 65 63 63 64 66 67 67 67 64 60 61 65 67 66 65 65 64 62 60 56 55 55 54 54 56 58 60 62 64 66 67 68 69 68 69 69 70 71 73 74 74 74 74 75 74 73 73 74 75 75 76 76 75 74 75 75 76 77 78 79 80 80 80 80 80 79 79 78 78 78 78 78 78 77 77
69 70 72 74 74 74 76 78 78 73 68 66 64 64 66 69 70 70 68 63 61 64 67 68 68 69 68 68 67 65 63 60 59 58 59 61 62 63 65 67 68 68 68 70 71 71 72 73 74 75 75 75 76 76 77 77 76 76 77 77 78 79 79 79 79 80 82 83 84 84 84 84 84 84 84 83 83 82 82 82 82 83 83 83 83
67 70 72 74 75 76 76 77 79 78 74 70 67 64 64 69 73 73 71 67 65 66 68 68 69 71 71 70 71 71 70 68 66 65 65 64 63 62 62 64 65 65 67 69 70 71 72 72 73 74 75 75 75 76 77 77 77 77 78 79 81 82 83 84 85 86 87 88 88 89 89 89 88 88 88 87 87 87 87 88 87 87 87 87 87
67 69 72 74 75 77 78 77 79 80 78 76 72 67 64 67 72 75 75 72 70 70 70 68 69 71 73 73 71 70 70 70 69 69 68 68 67 67 66 67 67 67 67 68 70 71 71 72 72 74 75 76 77 77 77 78 78 79 80 81 83 84 86 87 88 89 91 91 92 93 94 94 94 94 94 93 93 92 91 91 90 90 89 88 88
65 67 70 73 74 77 78 79 79 80 81 80 78 73 68 67 70 74 78 78 76 74 73 71 69 70 72 73 72 69 68 69 70 70 71 71 71 71 70 70 69 69 70 70 71 72 73 74 75 76 77 78 79 80 81 81 82 83 84 85 86 87 89 90 91 91 93 94 95 95 96 96 96 96 96 96 95 94 94 93 93 92 92 91 91
64 66 69 71 73 75 77 79 80 81 81 81 81 78 75 72 72 74 78 80 79 78 77 76 75 74 74 74 74 73 72 73 74 75 75 75 74 74 74 73 73 73 74 74 75 76 77 77 78 79 80 81 82 84 85 86 87 88 89 90 91 92 93 94 95 95 96 97 97 97 96 95 94 93 92 91 91 91 91 91 92 92 93 93 94
61 64 67 70 72 74 76 78 80 81 81 81 81 81 79 77 76 77 78 80 80 80 79 79 79 79 80 80 80 79 79 79 80 81 81 80 79 79 78 78 77 77 78 78 79 79 80 81 82 83 84 85 86 87 89 89 90 91 92 93 94 95 96 96 97 97 97 98 98 98 97 96 95 94 93 92 91 91 91 91 92 93 94 95 96
57 61 64 67 70 72 74 77 79 81 82 82 83 83 83 82 81 80 80 82 82 82 82 82 82 82 83 84 84 83 82 82 83 83 83 83 82 82 82 81 81 81 81 81 81 81 82 83 84 84 85 86 88 89 90 91 91 92 93 93 94 94 95 95 95 96 96 97 98 98 99 99 99 99 99 99 99 99 99 100 101 102 103 104 104
52 56 60 63 66 69 71 74 77 80 82 84 85 85 86 86 85 83 82 83 84 84 85 84 84 84 85 85 85 85 84 84 84 84 83 83 83 82 82 82 82 83 83 83 84 84 85 86 86 87 87 88 89 90 91 91 92 93 93 93 94 94 94 95 96 97 97 98 99 100 101 102 102 103 104 105 105 106 107 108 109 110 111 112 113
47 51 55 59 62 65 67 70 74 77 80 83 85 86 87 88 89 88 87 87 87 87 87 87 86 86 86 86 87 86 86 85 85 85 85 85 85 84 84 84 84 84 85 85 86 86 87 88 88 89 90 90 91 92 93 93 93 94 94 95 95 96 97 98 99 100 101 102 103 104 105 105 106 107 108 109 110 111 112 114 115 117 118 120 121
40 45 50 55 58 61 64 66 69 73 76 80 82 85 87 88 89 90 91 92 91 91 90 90 89 88 87 87 87 87 87 87 87 88 88 89 89 89 89 89 90 90 91 91 92 92 93 94 94 94 95 95 95 96 96 96 97 97 98 98 99 100 101 102 103 104 105 107 108 109 110 111 112 113 114 115 116 117 118 119 120 121 122 123 124
33 38 43 48 53 57 60 63 66 68 71 74 77 81 84 87 89 90 91 92 93 93 93 93 93 92 92 91 90 89 88 88 88 89 89 90 90 90 90 90 90 90 91 91 91 92 92 93 94 95 96 97 98 99 100 101 102 102 103 103 104 105 106 107 108 109 110 111 112 113 114 115 116 117 117 118 118 119 120 120 121 122 123 124 125
30 32 36 41 46 51 55 59 62 64 67 69 73 76 79 83 85 88 90 91 92 92 93 93 94 95 96 96 95 94 92 91 90 89 89 89 89 89 89 89 89 89 89 89 89 90 90 91 92 94 95 97 98 100 101 102 103 103 103 104 104 105 106 107 108 109 110 112 113 114 115 116 117 118 119 119 120 121 122 123 124 125 126 127 129
28 31 34 37 41 45 49 53 56 59 62 64 68 71 74 78 81 84 87 89 91 92 93 93 94 95 96 97 97 97 96 95 94 93 92 91 91 91 91 91 91 91 92 93 93 94 96 97 98 99 100 101 102 103 104 105 106 106 107 107 108 108 109 109 110 111 112 113 115 116 117 118 119 120 121 122 124 125 126 127 129 130 132 133 135
21 27 33 36 39 42 45 49 52 55 57 60 63 66 69 72 76 79 82 85 87 90 92 93 94 95 96 97 97 98 99 99 99 98 97 96 96 96 96 96 96 96 97 98 98 99 100 101 102 102 103 104 105 106 107 108 109 110 110 111 111 112 112 113 114 115 116 117 118 119 120 121 123 124 126 128 129 131 133 134 136 138 139 140 142
13 18 23 29 34 38 42 45 48 51 54 56 59 62 65 68 71 74 77 80 83 86 88 90 92 94 95 97 98 99 100 101 101 102 102 102 101 100 100 100 100 101 101 101 101 102 102 103 104 104 105 106 107 108 109 110 110 111 112 112 113 114 115 116 118 119 120 122 123 125 127 129 130 132 134 135 137 139 140 141 142 143 144 145 146
13 13 15 18 23 28 33 38 42 47 50 53 56 59 62 65 68 71 74 77 80 83 85 88 90 92 94 95 96 97 99 100 101 103 104 105 105 105 104 104 104 103 103 103 103 103 104 105 105 106 107 108 109 110 111 112 113 114 116 117 119 120 122 124 125 127 129 131 132 134 135 136 138 139 140 141 142 142 143 144 144 145 145 146 146
17 17 17 17 17 19 22 27 31 36 40 45 49 53 57 60 64 67 70 73 76 78 81 84 87 89 91 93 94 96 97 99 100 102 104 105 107 108 108 108 108 108 108 108 108 108 109 109 110 111 112 113 114 115 116 118 119 120 122 123 125 127 129 130 132 133 134 135 136 137 138 139 140 140 141 141 142 142 142 142 143 143 142 142 141
22 22 21 21 21 21 21 23 24 27 30 33 37 41 45 49 53 57 61 65 68 71 74 77 80 83 85 88 90 93 95 97 98 100 102 104 106 108 110 111 112 113 114 114 115 115 116 116 117 118 118 119 120 121 122 123 124 125 127 128 129 130 132 133 134 135 136 136 137 137 138 138 138 138 138 138 139 138 138 138 138 137 136 135 134
26 26 26 26 26 26 26 27 27 28 29 30 32 34 36 39 42 45 48 52 55 59 63 66 70 73 76 79 82 85 88 91 93 96 98 100 102 105 107 109 111 112 114 116 117 118 119 120 121 122 122 123 124 125 125 126 127 128 129 130 131 132 132 133 134 134 134 134 134 134 134 133 133 133 133 133 132 132 132 131 131 130 129 128 127
30 30 30 30 30 30 30 31 31 32 33 34 35 36 37 38 40 41 43 45 47 50 52 55 58 61 65 68 71 74 77 80 83 86 89 91 94 96 99 101 103 105 107 109 111 113 115 116 118 119 120 121 122 122 123 124 124 125 126 127 128 128 128 128 128 128 127 127 127 126 126 126 126 126 126 126 126 126 125 124 123 122 121 119 117
33 33 34 34 34 34 34 35 35 36 37 38 39 40 41 42 43 44 45 46 48 49 50 52 54 56 59 61 64 66 69 72 74 77 79 82 84 87 89 91 94 96 98 100 102 104 105 107 108 110 111 112 113 114 115 116 116 117 118 118 118 119 119 118 118 118 118 118 118 119 119 119 120 120 120 120 119 118 117 115 113 112 110 108 106
35 36 37 37 37 37 38 39 39 40 41 42 43 44 45 46 47 48 49 50 51 52 53 54 56 57 59 61 63 65 67 69 71 73 75 77 79 81 83 85 87 88 90 92 93 95 96 98 99 100 101 102 103 104 105 106 107 107 108 108 109 109 109 110 110 110 111 112 112 113 113 113 113 113 112 111 110 108 106 105 103 101 100 98 96
38 38 39 40 40 40 41 42 43 43 44 45 46 47 48 49 50 50 52 53 54 55 57 58 60 61 63 64 66 68 69 70 72 73 75 76 78 79 80 82 83 84 85 87 88 89 90 91 92 93 94 95 96 97 98 99 100 101 102 102 103 103 103 104 105 105 105 106 106 107 107 106 106 105 104 102 101 99 97 96 94 92 91 89 88
41 41 42 42 42 43 44 44 45 46 47 48 49 49 50 51 52 53 54 55 57 58 60 62 63 64 66 67 68 69 70 71 71 72 73 74 75 76 77 78 79 80 81 82 83 84 85 86 88 89 90 91 92 92 93 94 95 96 97 97 98 98 98 99 99 99 100 100 100 100 100 100 99 98 96 95 93 91 89 87 86 84 83 82 80
Wind_Direction
201 199 196 196 199 199 198 199 201 201 198 195 192 190 189 189 189 188 187 186 186 186 187 187 185 182 180 183 188 186 174 162 156 159 163 162 160 163 167 168 165 158 155 156 154 150 146 144 134 108 67 43 48 55 53 45 43 46 48 51 52 51 48 47 51 52 46 40 39 38 37 39 41 41 41 38 36 37 37 39 44 48 53 56 54
201 201 200 198 199 201 202 203 204 207 208 206 204 201 199 198 197 197 197 197 198 200 203 205 205 205 205 209 215 219 213 193 173 167 172 173 168 168 170 172 173 172 172 174 174 173 176 180 175 152 58 39 50 56 53 47 41 40 45 47 46 45 45 45 50 52 47 40 37 33 30 32 35 35 37 36 35 36 35 32 35 39 43 49 50
201 202 203 201 199 200 202 203 204 207 210 212 212 210 210 207 205 205 205 205 208 210 212 214 214 216 220 223 228 232 226 204 185 176 175 177 173 169 171 174 178 180 181 183 184 186 191 195 198 207 263 358 29 33 32 34 31 27 32 39 42 42 42 44 47 50 46 37 34 31 25 24 25 26 29 30 29 31 31 28 28 31 33 36 40
205 204 203 203 203 203 203 203 204 205 207 210 213 215 216 214 212 212 210 210 214 216 219 220 220 221 225 229 231 232 226 204 191 185 181 178 176 172 172 175 179 182 184 187 190 193 197 203 209 219 250 296 322 336 345 1 11 7 5 12 23 30 32 34 39 51 51 33 23 22 21 18 13 12 16 20 20 22 23 21 22 25 26 27 29
210 207 205 205 206 206 206 206 206 206 206 208 211 215 218 219 218 217 214 214 216 217 220 222 223 225 227 229 227 226 220 202 193 192 187 182 179 176 174 173 175 180 186 193 200 204 208 213 218 231 250 277 303 305 300 304 319 337 339 338 344 353 9 14 17 50 65 37 10 10 15 14 8 0 358 2 6 10 11 10 10 13 15 18 21
213 211 208 207 208 208 208 209 209 208 209 209 210 213 216 219 222 221 219 217 216 216 218 220 222 223 223 223 219 216 212 200 193 196 195 191 188 184 180 178 177 181 191 205 215 217 220 225 232 249 267 282 301 301 297 293 292 305 313 313 318 323 336 348 347 34 65 31 354 356 360 1 358 346 338 341 345 349 352 354 355 357 359 3 5
214 214 211 210 210 210 210 210 211 211 212 213 212 212 213 216 220 223 223 221 218 215 216 217 217 216 213 212 209 208 206 200 196 198 202 207 208 201 193 193 197 203 215 230 234 231 234 242 251 270 275 271 276 285 292 291 288 293 293 291 299 303 306 315 321 345 19 347 330 337 330 312 313 317 317 321 326 330 332 333 333 336 339 343 345
214 216 215 213 212 211 211 211 212 214 215 217 217 216 214 213 215 219 222 224 223 220 219 218 215 211 206 204 204 204 205 203 200 201 206 216 223 217 205 201 211 224 234 243 250 254 258 260 268 277 275 270 268 269 272 277 281 284 279 277 286 295 304 317 327 336 339 314 302 311 312 306 303 302 301 303 307 312 315 317 319 323 324 324 325
215 217 217 216 214 213 212 212 213 215 216 218 220 220 219 217 215 215 217 221 224 225 226 225 221 215 209 207 206 206 208 210 208 207 209 215 224 226 219 216 223 233 238 241 249 259 260 260 265 271 274 277 275 267 259 261 269 275 276 280 291 300 311 321 320 307 298 299 300 301 297 292 293 298 297 291 292 298 303 306 310 315 318 316 313
216 217 218 218 217 216 215 214 214 216 218 219 220 221 222 222 220 217 216 218 221 224 228 230 228 223 219 218 216 214 215 217 218 218 217 219 224 229 230 232 236 242 245 245 250 258 259 257 262 265 267 273 277 274 263 256 261 273 281 286 291 296 301 301 293 282 281 287 295 301 295 279 281 289 290 284 285 289 292 294 299 307 311 309 305
216 217 218 219 218 218 219 218 217 217 218 220 221 222 222 223 224 223 221 220 221 223 226 230 231 230 227 226 225 224 225 226 226 227 226 226 229 233 236 239 242 246 248 250 253 258 259 259 262 263 263 270 276 277 271 266 268 274 278 280 282 286 288 286 283 282 282 282 285 289 290 282 279 283 283 278 276 277 278 281 290 300 303 300 300
217 218 218 219 219 219 221 222 221 221 221 221 222 223 224 225 226 227 227 226 227 227 227 229 231 233 232 231 230 230 231 233 234 235 235 235 236 238 239 242 244 246 249 252 255 258 260 263 268 272 274 275 275 274 274 274 273 274 277 280 283 285 285 281 276 277 280 281 282 284 285 283 280 279 278 276 274 274 276 279 283 289 292 292 296
217 218 219 219 219 220 221 223 224 224 224 224 224 224 225 226 228 229 230 231 232 233 232 232 233 234 236 236 236 235 235 237 239 241 241 242 243 244 245 245 246 248 251 254 257 261 265 269 274 276 275 272 271 272 273 274 275 279 283 287 289 289 287 284 281 280 281 280 280 281 283 283 280 278 278 278 276 276 278 278 278 281 283 284 287
217 218 219 220 220 220 222 223 225 226 226 226 226 227 227 228 229 231 231 232 234 235 237 237 237 238 239 240 241 242 241 240 241 244 245 247 249 250 252 252 252 253 254 256 258 260 262 264 265 265 266 266 268 269 271 273 277 281 284 288 290 289 286 284 282 281 280 279 278 279 280 280 278 275 274 274 275 276 277 277 277 277 280 282 282
217 219 220 221 221 221 222 224 226 227 228 228 228 229 230 231 231 232 233 234 236 238 239 240 240 241 242 243 244 245 245 244 244 246 247 250 252 254 255 256 257 258 258 258 258 257 257 259 260 261 263 264 265 266 268 271 276 280 282 284 285 283 282 282 280 279 279 278 278 278 277 278 278 277 274 273 275 276 276 277 277 277 279 281 281
219 220 221 222 222 222 222 224 227 228 229 229 230 230 231 232 233 234 235 236 238 240 242 243 243 243 243 244 246 247 247 247 247 249 250 252 254 256 258 259 261 261 262 262 261 260 259 258 260 262 263 264 264 264 264 266 270 275 279 277 276 277 280 281 280 280 281 281 282 283 280 279 280 280 279 277 277 277 277 277 277 279 280 281 281
220 221 221 221 223 224 224 225 227 229 230 231 231 231 232 233 234 236 237 238 239 241 243 244 244 245 245 246 246 248 248 249 250 252 253 254 257 259 261 262 263 264 264 265 266 266 264 262 260 261 262 263 263 263 264 265 265 267 271 273 275 277 280 281 281 283 283 284 286 287 286 284 283 283 282 282 281 281 280 280 280 281 281 282 282
223 223 222 221 222 225 227 228 228 229 231 232 232 232 233 234 236 237 238 238 240 242 243 244 245 245 246 247 247 248 248 248 251 254 256 257 259 262 265 268 271 271 270 271 271 270 269 268 266 264 264 264 264 265 265 265 262 259 262 269 273 276 277 279 280 281 282 284 286 286 286 286 286 285 285 285 284 283 283 283 283 282 281 281 281
224 223 223 222 223 224 227 229 231 232 232 233 233 233 233 234 236 238 239 240 242 244 244 245 247 247 247 248 249 249 249 248 250 254 257 259 261 264 267 270 271 272 271 271 269 267 268 269 267 267 268 269 269 268 266 264 262 260 262 267 272 274 274 275 276 277 279 281 281 281 282 282 283 284 285 285 285 284 284 283 283 281 280 280 281
224 222 221 222 224 225 225 227 229 231 232 234 234 233 232 233 235 237 238 240 241 243 244 246 248 249 249 250 251 251 250 250 252 254 257 259 261 264 265 264 263 263 264 264 263 262 263 264 264 266 268 269 269 268 266 264 264 265 267 270 273 274 274 273 273 275 278 279 279 280 281 281 281 281 282 282 283 283 283 282 281 280 279 279 279
224 222 220 220 223 226 226 226 227 229 231 233 234 233 232 233 235 237 237 239 240 242 245 247 250 251 250 250 250 251 251 252 253 254 256 257 258 258 258 258 259 259 260 260 260 262 263 263 264 265 265 264 265 267 267 266 267 269 271 272 272 272 272 271 271 273 275 278 279 280 280 280 280 280 280 280 281 280 280 280 280 280 279 278 278
224 222 221 220 222 225 226 226 226 227 229 231 233 234 234 234 235 237 238 239 241 242 243 246 249 252 251 249 249 251 252 252 251 251 251 252 254 255 255 257 259 259 259 260 260 261 263 264 265 266 265 263 263 265 267 270 271 271 271 271 269 268 267 268 270 272 274 277 279 280 280 280 280 279 279 279 280 280 280 280 281 282 282 280 279
224 223 221 219 219 221 223 223 223 224 227 230 231 234 236 236 236 237 238 240 243 244 245 246 248 251 251 249 248 251 254 252 249 248 248 250 252 254 257 259 261 260 260 260 260 261 262 262 263 263 263 263 263 264 266 268 268 268 268 268 266 265 266 268 271 273 274 276 278 280 280 280 280 279 279 279 279 279 280 281 282 283 284 283 282
225 224 222 219 218 219 220 222 223 223 225 228 229 231 235 237 236 237 238 239 242 245 245 243 242 245 249 249 248 250 255 254 251 250 250 252 253 255 257 260 262 261 260 260 261 261 262 263 263 264 264 264 264 265 266 266 266 267 268 269 267 266 267 270 273 276 276 276 277 278 279 279 279 279 279 278 278 277 278 278 279 280 281 281 281
224 224 223 221 219 220 221 223 224 224 225 228 229 229 232 236 236 237 239 240 242 244 244 243 242 242 246 248 248 250 252 254 255 255 253 253 253 254 255 258 260 261 260 259 260 262 263 265 266 267 267 267 266 266 267 267 267 268 269 271 271 271 271 272 275 278 278 277 278 279 279 280 280 281 281 281 281 280 279 279 278 277 277 278 278
225 224 224 223 221 221 221 222 224 224 224 227 231 231 232 234 236 236 238 241 244 245 245 245 245 244 245 246 246 247 248 251 255 257 257 257 257 256 256 257 259 259 259 259 260 262 264 265 267 267 268 269 269 269 269 270 270 271 272 272 274 275 275 275 276 277 278 278 280 281 282 283 284 284 285 285 285 285 285 284 283 281 279 278 278
225 224 224 224 223 223 222 222 224 223 222 224 229 232 233 234 235 235 236 239 243 246 248 248 247 247 247 247 247 247 247 250 253 256 258 260 261 261 261 260 260 260 261 262 262 263 264 265 267 268 269 270 271 271 271 271 272 273 274 274 275 276 277 277 277 278 279 280 282 283 284 284 285 285 286 286 286 285 286 286 285 284 282 281 280
225 224 224 225 224 224 223 222 223 224 221 221 225 229 232 234 234 234 234 235 236 241 246 249 249 250 249 249 249 250 250 250 252 255 257 259 260 261 263 263 264 264 266 266 266 266 266 267 267 269 270 270 271 271 272 272 273 273 273 274 275 277 277 278 278 279 280 281 282 283 284 285 285 285 285 285 285 284 284 284 284 283 283 282 281
225 224 224 224 225 225 224 222 222 223 223 222 223 226 229 233 234 234 233 233 232 233 237 242 246 249 251 250 250 252 253 253 253 255 256 256 256 258 261 263 265 267 267 268 269 269 268 268 268 269 269 270 270 271 271 272 273 273 274 274 275 276 276 277 278 279 280 281 282 284 284 285 285 286 286 285 285 285 285 285 285 284 284 284 284
225 224 224 224 224 225 225 224 222 223 222 222 223 224 225 229 232 234 233 232 232 232 233 235 238 243 247 250 250 251 252 253 254 255 255 254 255 257 259 262 264 265 266 267 268 268 269 269 269 269 270 270 270 271 271 271 272 273 274 274 275 275 276 277 278 279 280 281 282 283 284 285 285 286 286 286 286 286 286 286 286 286 286 286 285
224 224 224 224 224 225 226 226 224 223 223 223 223 223 223 224 228 232 233 232 231 232 234 235 237 239 242 245 247 248 249 251 253 254 255 255 256 258 260 261 262 263 264 264 265 266 267 268 268 269 270 271 271 271 272 272 272 273 273 274 275 276 277 278 279 280 281 281 282 283 283 284 285 285 286 286 287 287 287 287 287 287 287 287 286
224 224 223 224 224 225 226 227 226 226 225 225 225 225 225 224 225 229 233 235 235 234 235 238 240 242 243 244 246 248 250 251 252 254 255 256 257 259 260 261 261 262 262 263 264 265 266 267 268 268 269 270 271 271 272 272 273 273 274 275 275 276 277 278 279 280 281 282 282 283 283 283 283 283 283 283 283 283 284 284 285 285 284 284 284
225 224 224 224 224 225 226 227 228 228 227 227 226 226 226 227 227 228 231 235 237 238 239 240 243 245 247 248 249 250 252 253 254 256 257 258 258 259 260 260 261 262 262 263 264 265 266 267 268 269 270 271 272 272 273 274 274 274 274 275 275 276 277 277 278 279 280 280 281 281 281 281 281 280 279 278 277 277 277 277 277 277 278 278 278
227 226 225 225 225 225 226 227 228 228 228 228 228 227 227 227 228 229 231 233 236 238 240 242 244 246 247 249 250 252 254 255 256 258 260 261 261 262 262 261 262 262 262 263 264 265 266 267 268 269 270 271 272 273 274 274 275 275 275 275 276 276 276 277 277 278 279 279 279 279 279 279 279 279 278 278 277 277 277 277 277 277 277 277 277
229 229 228 227 226 227 227 228 229 229 230 230 229 229 229 229 229 230 231 232 234 236 238 241 243 245 246 248 249 251 253 255 256 258 259 261 262 262 263 263 263 264 264 265 266 267 267 268 269 269 270 271 271 272 273 273 273 274 274 274 274 275 275 276 276 277 278 278 278 278 278 278 279 279 279 279 279 279 279 279 279 279 279 279 279
232 231 230 230 229 228 229 229 230 231 231 231 232 232 232 232 232 232 233 233 234 235 237 239 241 243 246 248 249 251 252 254 256 257 258 259 260 261 261 262 263 264 265 266 266 267 268 268 269 269 269 270 270 270 271 271 271 272 272 272 273 273 274 275 276 276 277 277 278 278 278 279 279 279 279 279 280 280 280 280 280 280 281 281 281
237 234 233 232 231 231 231 231 232 232 233 233 234 234 234 234 234 235 235 236 236 237 238 239 240 243 245 248 250 251 253 254 256 257 259 259 260 261 262 263 264 265 266 266 267 267 268 268 269 269 269 270 270 270 271 271 271 272 272 273 274 274 275 276 276 276 277 277 277 278 278 279 279 279 280 280 280 280 281 281 281 281 282 282 282
241 238 237 235 234 233 233 233 234 234 235 235 235 236 237 237 237 237 238 238 239 240 241 242 242 243 245 247 249 251 253 255 256 258 259 260 261 262 263 264 265 266 267 267 268 268 269 269 270 270 271 271 272 273 273 274 275 275 276 276 277 277 278 278 278 278 278 278 278 279 279 279 280 280 280 280 281 281 281 281 281 281 282 282 282
239 239 238 238 237 236 236 235 236 236 237 237 237 238 239 239 239 240 240 241 241 242 243 244 245 245 246 247 249 250 252 253 255 256 257 258 260 261 262 262 263 264 265 265 266 266 267 268 269 269 270 271 272 273 274 274 275 276 276 276 277 277 277 278 278 278 278 279 279 279 279 279 280 280 280 280 280 280 280 280 280 281 281 281 281
239 238 237 237 237 237 237 237 238 238 239 239 240 240 241 242 242 242 242 243 243 244 245 246 247 247 248 249 250 251 252 253 254 255 256 257 258 259 260 260 261 262 262 263 264 265 265 266 267 268 269 270 271 272 272 273 274 274 275 275 275 276 276 276 276 276 277 277 277 278 278 278 278 279 279 279 279 280 280 280 281 281 281 281 282
248 244 242 240 239 239 238 238 239 240 240 241 241 242 242 243 244 244 244 245 245 246 246 247 248 249 249 250 251 251 252 253 254 256 257 258 259 260 260 261 262 262 263 264 265 265 266 267 268 269 270 270 271 272 273 273 274 274 275 275 275 275 276 276 276 276 276 277 277 277 278 278 278 279 279 280 280 281 281 282 282 283 283 284 284
266 258 253 250 247 244 243 242 241 241 241 242 242 243 244 244 245 245 246 246 247 247 248 248 249 250 250 251 252 252 253 254 255 256 257 258 260 261 262 263 263 264 265 266 266 267 268 268 269 270 270 271 271 272 273 273 274 274 274 275 275 275 275 275 276 276 277 277 278 278 279 280 280 281 281 282 283 283 283 284 284 285 285 285 286
274 270 266 262 257 253 250 248 247 245 245 245 245 245 246 246 246 247 247 248 248 249 249 250 251 251 252 253 253 254 255 255 256 256 257 258 260 261 262 263 264 265 266 266 267 267 268 269 269 270 270 271 271 272 272 273 273 274 275 275 275 276 277 277 278 279 279 280 281 281 282 282 282 283 283 284 284 285 285 285 285 286 286 286 286
272 269 267 266 263 260 257 255 254 253 252 251 250 250 250 250 250 250 251 251 251 251 252 252 253 254 254 255 255 256 256 257 257 257 258 259 260 261 262 263 264 265 266 267 267 268 269 269 270 270 271 271 272 273 273 274 275 275 276 277 277 278 279 279 280 281 281 282 282 283 283 283 284 284 284 285 285 285 285 286 286 286 286 286 286
273 270 268 266 264 262 261 260 259 259 258 257 257 257 256 256 255 255 255 255 255 255 255 256 256 256 257 257 258 258 258 259 259 259 260 260 261 261 262 263 264 265 266 267 268 268 269 270 271 271 272 273 273 274 275 275 276 277 277 278 279 279 280 280 281 281 282 282 283 283 284 284 284 284 285 285 285 285 285 286 286 286 286 287 287
273 272 270 268 266 265 264 263 262 262 262 262 262 262 262 261 261 261 261 260 260 260 260 260 260 260 260 260 261 261 261 261 261 262 262 262 263 263 264 264 265 265 266 267 268 269 269 270 271 272 272 273 274 275 275 276 277 277 278 278 279 280 280 281 281 282 282 283 283 283 284 284 284 284 285 285 285 285 286 286 286 286 287 287 287
274 273 272 271 270 269 268 268 267 267 267 266 266 266 265 265 265 265 265 265 265 265 265 265 265 265 265 264 264 264 264 264 264 264 264 265 265 265 266 266 266 267 267 268 268 269 270 270 271 272 272 273 274 275 275 276 277 277 278 278 279 279 280 281 281 282 282 283 283 283 284 284 284 285 285 285 285 286 286 286 287 287 287 287 287
273 273 273 272 272 272 272 272 272 272 271 271 271 270 270 270 270 270 270 270 270 270 270 270 270 270 269 269 269 268 268 267 267 267 267 267 267 267 267 267 268 268 268 269 269 270 270 271 272 272 273 274 274 275 275 276 276 277 278 278 279 280 280 281 282 282 283 283 284 284 284 284 285 285 285 286 286 286 287 287 287 287 287 288 288
271 271 272 272 273 273 274 274 274 274 274 274 274 275 275 275 275 275 275 275 276 276 276 276 276 276 275 274 273 273 272 271 271 270 270 269 269 269 269 269 269 269 270 270 271 271 271 272 273 273 274 275 275 276 276 277 278 278 279 280 281 281 282 283 283 284 284 284 284 285 285 285 286 286 287 287 287 288 288 288 288 289 289 289 289
272 272 273 273 274 274 275 275 275 276 276 277 277 277 277 277 277 277 278 278 279 280 280 281 281 281 281 280 279 278 277 276 275 274 274 273 272 272 272 272 272 272 272 272 272 273 273 274 274 275 276 276 277 278 279 279 280 281 281 282 283 283 284 284 285 285 285 286 286 286 287 287 288 288 289 289 289 289 290 290 290 290 290 290 290
272 273 274 275 275 275 276 276 277 277 278 279 279 279 279 279 279 279 280 280 281 282 283 284 284 283 283 282 282 281 280 279 279 278 277 276 276 275 275 275 275 275 275 275 275 276 276 277 277 278 278 279 280 280 281 282 282 283 284 284 285 285 286 286 286 287 287 288 288 289 289 290 290 290 290 291 291 291 291 291 291 291 291 291 291
Height
10959 10959 10960 10960 10961 10963 10964 10966 10967 10969 10969 10970 10970 10970 10971 10972 10973 10974 10975 10976 10977 10978 10978 10978 10979 10979 10980 10980 10980 10980 10980 10980 10980 10980 10979 10979 10979 10979 10979 10979 10979 10979 10979 10980 10980 10980 10980 10979 10979 10979 10979 10979 10979 10979 10979 10979 10979 10979 10978 10978 10977 10976 10976 10976 10976 10977 10978 10978 10978 10977 10976 10976 10975 10975 10974 10973 10972 10971 10970 10969 10968 10967 10967 10966 10966
10957 10958 10958 10959 10960 10961 10962 10963 10965 10966 10968 10969 10970 10970 10971 10971 10972 10973 10974 10975 10976 10977 10978 10978 10979 10979 10980 10980 10980 10980 10979 10979 10980 10980 10979 10979 10979 10979 10979 10979 10979 10979 10979 10979 10979 10979 10979 10978 10978 10978 10978 10978 10979 10979 10980 10980 10980 10980 10979 10979 10978 10978 10977 10978 10978 10978 10979 10980 10980 10979 10979 10978 10978 10978 10977 10976 10975 10974 10973 10972 10971 10970 10969 10969 10968
10954 10955 10956 10957 10958 10959 10960 10961 10962 10963 10965 10967 10969 10969 10970 10970 10971 10971 10972 10973 10975 10976 10977 10978 10978 10979 10979 10980 10980 10980 10979 10979 10979 10979 10979 10979 10979 10979 10978 10978 10978 10978 10978 10978 10977 10977 10977 10976 10976 10977 10977 10978 10979 10980 10980 10981 10981 10981 10981 10981 10980 10979 10979 10979 10979 10980 10980 10980 10980 10981 10981 10980 10980 10980 10979 10978 10977 10976 10975 10975 10973 10972 10971 10971 10970
10951 10952 10953 10955 10956 10957 10958 10959 10960 10961 10962 10964 10966 10968 10969 10969 10970 10970 10971 10972 10973 10974 10975 10976 10977 10977 10978 10978 10979 10979 10979 10979 10979 10979 10979 10979 10978 10978 10977 10977 10977 10978 10978 10977 10977 10976 10975 10975 10975 10976 10977 10978 10979 10980 10981 10981 10982 10982 10982 10982 10981 10981 10980 10980 10980 10980 10980 10981 10981 10982 10982 10981 10980 10981 10980 10980 10979 10978 10977 10977 10976 10974 10973 10972 10971
10948 10949 10950 10952 10953 10954 10956 10957 10958 10959 10960 10962 10963 10965 10967 10968 10969 10969 10970 10970 10970 10971 10973 10974 10975 10976 10976 10977 10977 10978 10978 10979 10979 10979 10979 10978 10978 10978 10977 10977 10977 10977 10977 10977 10976 10975 10975 10975 10975 10976 10977 10978 10979 10980 10981 10981 10982 10982 10982 10982 10982 10982 10981 10981 10980 10980 10980 10981 10982 10982 10981 10980 10981 10981 10981 10981 10980 10980 10979 10978 10977 10976 10975 10974 10973
10945 10946 10948 10949 10950 10951 10953 10955 10956 10958 10959 10960 10961 10962 10964 10966 10967 10968 10969 10969 10969 10970 10971 10972 10973 10974 10974 10975 10976 10976 10977 10978 10978 10978 10978 10978 10978 10977 10977 10978 10977 10977 10977 10976 10975 10975 10975 10976 10975 10976 10977 10978 10978 10979 10980 10981 10981 10982 10982 10983 10983 10982 10982 10981 10980 10981 10981 10981 10982 10981 10979 10979 10981 10982 10982 10980 10979 10979 10979 10978 10977 10977 10976 10975 10974
10941 10943 10944 10946 10947 10949 10950 10952 10954 10956 10957 10958 10959 10959 10960 10962 10964 10966 10968 10968 10968 10969 10969 10970 10971 10971 10972 10973 10974 10975 10975 10976 10977 10977 10977 10977 10977 10977 10977 10977 10977 10977 10976 10974 10974 10975 10975 10975 10975 10976 10977 10977 10977 10978 10979 10980 10980 10981 10982 10983 10982 10982 10981 10981 10980 10981 10981 10981 10981 10980 10979 10978 10979 10981 10982 10981 10979 10978 10977 10977 10977 10977 10976 10975 10974
10937 10939 10941 10942 10944 10946 10948 10950 10951 10953 10954 10955 10956 10957 10958 10959 10960 10963 10965 10967 10968 10968 10969 10969 10969 10970 10970 10971 10972 10973 10974 10974 10975 10975 10976 10976 10976 10977 10977 10977 10977 10976 10975 10974 10973 10974 10974 10973 10974 10976 10976 10976 10977 10977 10978 10979 10979 10980 10981 10982 10981 10980 10980 10980 10980 10980 10981 10981 10980 10980 10979 10978 10979 10980 10981 10980 10979 10978 10977 10977 10977 10977 10976 10975 10974
10933 10935 10937 10938 10941 10943 10945 10947 10948 10950 10951 10952 10953 10955 10956 10957 10958 10959 10961 10963 10965 10967 10967 10968 10968 10969 10969 10970 10970 10971 10972 10972 10973 10974 10975 10975 10975 10975 10976 10976 10976 10976 10975 10973 10972 10973 10973 10973 10974 10975 10975 10975 10976 10976 10977 10978 10978 10979 10980 10980 10979 10979 10979 10979 10979 10979 10979 10979 10979 10979 10978 10978 10978 10979 10979 10979 10979 10978 10978 10978 10978 10977 10976 10975 10974
10927 10930 10932 10934 10937 10940 10942 10944 10945 10946 10947 10948 10949 10951 10953 10954 10955 10956 10957 10959 10961 10963 10964 10966 10967 10968 10968 10969 10969 10970 10971 10971 10972 10973 10974 10974 10974 10974 10974 10974 10975 10974 10973 10972 10971 10971 10972 10973 10974 10974 10974 10974 10974 10974 10975 10976 10977 10978 10978 10978 10977 10977 10977 10978 10978 10978 10978 10978 10977 10978 10977 10977 10977 10977 10977 10977 10977 10977 10977 10977 10977 10977 10976 10974 10972
10922 10924 10927 10930 10933 10936 10938 10940 10941 10942 10943 10944 10945 10947 10950 10952 10953 10954 10955 10956 10957 10959 10960 10962 10964 10965 10966 10967 10967 10968 10969 10970 10971 10971 10972 10972 10972 10972 10972 10973 10973 10972 10971 10971 10970 10970 10970 10972 10973 10973 10972 10972 10972 10972 10973 10974 10974 10975 10975 10975 10975 10975 10975 10975 10975 10976 10976 10976 10976 10976 10976 10976 10975 10975 10975 10975 10975 10974 10974 10975 10975 10974 10973 10972 10970
10916 10919 10922 10925 10928 10931 10934 10935 10936 10938 10939 10940 10942 10945 10947 10949 10950 10952 10953 10954 10955 10956 10957 10958 10960 10962 10963 10964 10965 10966 10966 10967 10968 10969 10969 10970 10970 10970 10970 10970 10970 10970 10969 10969 10969 10969 10969 10970 10971 10970 10970 10970 10969 10970 10970 10971 10971 10971 10971 10971 10972 10972 10972 10972 10972 10972 10973 10973 10973 10973 10974 10973 10973 10972 10972 10972 10972 10971 10971 10971 10971 10970 10969 10968 10967
10910 10913 10917 10920 10923 10926 10928 10930 10931 10933 10935 10937 10939 10942 10944 10946 10947 10949 10951 10952 10953 10954 10955 10956 10956 10958 10959 10961 10962 10962 10963 10964 10964 10965 10965 10966 10966 10967 10967 10967 10967 10967 10967 10967 10967 10967 10968 10968 10968 10967 10967 10967 10967 10968 10968 10968 10968 10968 10968 10967 10968 10968 10968 10968 10968 10969 10969 10970 10970 10970 10970 10969 10969 10969 10969 10969 10968 10967 10967 10968 10967 10967 10966 10965 10965
10903 10908 10911 10914 10917 10920 10923 10925 10927 10929 10931 10933 10936 10939 10941 10943 10945 10946 10947 10948 10949 10950 10952 10953 10954 10955 10956 10957 10959 10959 10960 10960 10960 10960 10961 10962 10962 10963 10963 10963 10964 10964 10964 10964 10964 10965 10966 10966 10966 10965 10964 10964 10965 10965 10966 10966 10966 10965 10965 10964 10963 10963 10963 10963 10963 10964 10965 10966 10966 10966 10965 10965 10965 10965 10965 10965 10964 10963 10963 10963 10963 10962 10962 10961 10961
10897 10902 10905 10909 10912 10915 10918 10920 10922 10925 10927 10930 10933 10935 10937 10939 10941 10942 10943 10944 10945 10947 10948 10949 10950 10951 10952 10953 10955 10955 10955 10956 10957 10956 10957 10957 10958 10958 10959 10959 10960 10961 10961 10961 10961 10962 10962 10962 10962 10961 10961 10961 10962 10962 10963 10963 10963 10962 10961 10960 10959 10957 10956 10956 10957 10958 10960 10961 10961 10961 10961 10960 10960 10960 10960 10960 10959 10959 10958 10958 10958 10957 10957 10956 10956
10891 10896 10900 10904 10907 10910 10914 10916 10918 10921 10923 10926 10929 10931 10933 10935 10936 10937 10939 10941 10942 10943 10944 10945 10946 10947 10948 10949 10950 10950 10950 10952 10952 10952 10953 10953 10953 10954 10954 10955 10956 10956 10957 10957 10956 10957 10957 10957 10958 10957 10957 10959 10959 10958 10959 10960 10959 10958 10957 10955 10953 10951 10951 10951 10951 10954 10956 10956 10956 10956 10956 10955 10956 10955 10955 10955 10954 10954 10953 10952 10952 10952 10951 10950 10950
10885 10890 10894 10898 10902 10906 10909 10911 10914 10917 10919 10921 10924 10926 10928 10930 10932 10934 10936 10937 10937 10939 10940 10940 10942 10943 10943 10945 10945 10945 10946 10947 10947 10947 10948 10948 10949 10949 10950 10951 10951 10952 10952 10952 10951 10952 10952 10952 10953 10953 10953 10954 10954 10953 10955 10955 10955 10955 10952 10948 10947 10947 10947 10947 10947 10948 10951 10951 10950 10950 10950 10949 10950 10950 10950 10949 10949 10948 10947 10947 10947 10946 10945 10944 10943
10879 10883 10888 10893 10897 10900 10903 10906 10909 10912 10914 10916 10919 10921 10924 10926 10928 10929 10931 10932 10933 10934 10935 10935 10937 10938 10938 10940 10940 10940 10941 10942 10942 10942 10943 10943 10944 10944 10945 10946 10947 10947 10947 10946 10946 10947 10946 10945 10947 10947 10947 10948 10947 10948 10949 10949 10949 10950 10947 10943 10942 10943 10944 10943 10942 10943 10944 10945 10945 10945 10944 10943 10944 10943 10943 10943 10942 10942 10941 10941 10940 10940 10939 10938 10937
10871 10877 10883 10889 10892 10895 10899 10902 10904 10907 10909 10911 10913 10916 10919 10922 10923 10923 10926 10929 10930 10929 10929 10930 10932 10933 10933 10934 10935 10935 10936 10937 10938 10938 10938 10938 10939 10940 10940 10941 10942 10941 10941 10942 10942 10941 10940 10940 10940 10940 10940 10941 10941 10942 10942 10942 10942 10943 10942 10940 10939 10939 10939 10939 10938 10938 10938 10939 10938 10938 10938 10938 10937 10937 10936 10935 10935 10935 10935 10935 10933 10933 10932 10931 10930
10863 10870 10878 10883 10886 10888 10892 10895 10897 10900 10903 10905 10906 10909 10913 10915 10916 10917 10921 10924 10924 10923 10924 10926 10927 10928 10928 10929 10929 10929 10930 10932 10933 10933 10933 10933 10934 10935 10936 10936 10937 10936 10936 10936 10936 10935 10934 10934 10934 10934 10934 10935 10935 10935 10935 10935 10936 10937 10937 10936 10935 10934 10934 10934 10933 10933 10933 10932 10932 10931 10931 10930 10930 10930 10929 10928 10928 10928 10928 10928 10927 10926 10926 10925 10924
10855 10862 10869 10875 10878 10882 10887 10889 10891 10894 10897 10898 10900 10902 10905 10908 10909 10911 10914 10917 10917 10918 10921 10921 10921 10922 10922 10923 10923 10923 10924 10926 10927 10927 10927 10927 10929 10931 10931 10931 10931 10931 10931 10930 10929 10929 10928 10928 10928 10928 10928 10928 10928 10929 10929 10930 10931 10931 10931 10930 10929 10928 10928 10927 10927 10927 10926 10926 10926 10925 10924 10923 10923 10922 10922 10921 10921 10921 10921 10921 10920 10919 10919 10918 10917
10847 10853 10860 10868 10873 10876 10879 10881 10882 10886 10889 10891 10893 10896 10899 10901 10903 10905 10907 10910 10912 10915 10917 10916 10915 10915 10916 10916 10916 10917 10918 10920 10921 10920 10920 10921 10923 10924 10925 10925 10925 10924 10924 10923 10922 10922 10922 10922 10922 10922 10922 10921 10922 10922 10923 10924 10925 10924 10923 10923 10922 10922 10921 10921 10920 10920 10920 10919 10918 10918 10917 10916 10915 10915 10914 10914 10914 10914 10914 10914 10913 10912 10911 10911 10910
10839 10845 10852 10859 10862 10863 10865 10868 10870 10876 10881 10884 10887 10891 10893 10894 10896 10899 10903 10906 10908 10910 10911 10910 10910 10909 10909 10909 10910 10910 10911 10913 10913 10913 10913 10914 10915 10917 10917 10917 10918 10917 10916 10916 10915 10915 10915 10915 10915 10916 10915 10915 10916 10916 10916 10918 10918 10917 10915 10915 10915 10915 10914 10914 10914 10913 10913 10912 10911 10911 10910 10909 10908 10907 10906 10906 10906 10905 10905 10905 10904 10904 10903 10902 10901
10831 10836 10842 10847 10850 10852 10856 10860 10863 10868 10873 10875 10879 10884 10885 10887 10891 10895 10898 10900 10901 10902 10902 10903 10903 10903 10903 10902 10903 10904 10904 10905 10906 10907 10907 10907 10908 10909 10909 10910 10910 10909 10908 10908 10907 10907 10907 10907 10907 10908 10908 10909 10909 10909 10909 10910 10911 10910 10908 10908 10908 10908 10907 10907 10906 10906 10905 10905 10904 10903 10902 10901 10900 10899 10898 10898 10897 10897 10896 10896 10896 10895 10894 10893 10892
10822 10827 10832 10837 10841 10845 10849 10853 10857 10861 10865 10867 10872 10877 10878 10881 10885 10888 10890 10892 10893 10893 10893 10894 10895 10896 10896 10896 10897 10897 10898 10899 10900 10900 10900 10901 10901 10902 10902 10903 10902 10899 10898 10898 10899 10899 10900 10900 10900 10900 10900 10901 10901 10901 10900 10900 10901 10901 10901 10900 10900 10900 10900 10899 10898 10897 10896 10896 10895 10894 10893 10892 10891 10890 10889 10888 10888 10887 10887 10887 10886 10886 10885 10884 10883
10813 10819 10823 10828 10833 10837 10841 10846 10849 10853 10857 10862 10866 10870 10872 10874 10877 10880 10882 10883 10883 10883 10884 10885 10887 10888 10889 10889 10891 10891 10892 10892 10893 10894 10895 10895 10895 10895 10895 10894 10892 10889 10888 10890 10893 10893 10893 10893 10892 10892 10892 10892 10892 10892 10892 10892 10891 10891 10891 10891 10891 10891 10891 10890 10889 10888 10887 10886 10885 10884 10883 10882 10881 10880 10878 10877 10876 10875 10875 10875 10874 10874 10874 10873 10872
10805 10810 10814 10819 10823 10828 10833 10838 10841 10845 10850 10855 10859 10862 10864 10866 10869 10871 10873 10875 10875 10875 10876 10878 10879 10881 10881 10883 10884 10884 10885 10886 10887 10888 10889 10888 10888 10887 10886 10884 10882 10881 10881 10883 10884 10884 10885 10885 10884 10883 10883 10883 10883 10882 10882 10882 10882 10881 10881 10880 10880 10880 10880 10880 10879 10878 10877 10876 10875 10874 10873 10872 10871 10869 10868 10867 10865 10864 10863 10862 10862 10861 10861 10861 10860
10796 10801 10805 10808 10813 10818 10823 10828 10833 10837 10842 10847 10850 10852 10854 10856 10859 10861 10863 10866 10867 10868 10869 10870 10871 10872 10873 10875 10876 10876 10878 10879 10881 10881 10881 10880 10879 10878 10876 10875 10874 10874 10875 10874 10873 10874 10876 10876 10875 10875 10874 10874 10873 10872 10872 10872 10872 10871 10871 10870 10869 10869 10868 10868 10867 10867 10866 10865 10864 10863 10862 10861 10860 10859 10857 10856 10855 10853 10852 10851 10850 10849 10848 10847 10847
10787 10791 10795 10799 10804 10808 10813 10818 10824 10829 10833 10838 10841 10844 10846 10848 10850 10852 10855 10857 10858 10860 10861 10862 10863 10863 10865 10866 10867 10868 10869 10871 10872 10873 10873 10872 10871 10870 10869 10867 10867 10867 10866 10865 10864 10865 10866 10866 10866 10865 10864 10864 10864 10863 10862 10862 10861 10861 10860 10859 10858 10858 10857 10856 10856 10855 10854 10853 10853 10852 10851 10849 10848 10846 10845 10844 10842 10841 10839 10838 10837 10836 10834 10833 10832
10777 10782 10786 10790 10795 10799 10804 10809 10814 10819 10823 10828 10831 10835 10837 10839 10840 10843 10845 10847 10849 10850 10852 10853 10854 10855 10856 10858 10859 10860 10861 10862 10863 10864 10864 10864 10863 10862 10861 10860 10860 10859 10859 10858 10857 10856 10856 10856 10856 10855 10854 10854 10853 10853 10853 10852 10851 10850 10849 10848 10847 10847 10846 10845 10844 10843 10842 10841 10840 10839 10838 10836 10835 10833 10831 10830 10828 10827 10826 10824 10823 10822 10820 10819 10817
10769 10774 10778 10782 10787 10791 10795 10800 10805 10809 10814 10817 10820 10823 10826 10828 10830 10832 10834 10837 10839 10841 10843 10844 10845 10847 10848 10849 10851 10852 10853 10854 10855 10855 10855 10855 10854 10854 10853 10853 10852 10851 10850 10849 10848 10847 10847 10846 10846 10845 10844 10844 10843 10842 10842 10842 10841 10840 10839 10838 10837 10836 10835 10834 10833 10832 10831 10830 10829 10827 10826 10824 10822 10820 10818 10816 10814 10813 10811 10810 10808 10807 10805 10804 10803
10762 10766 10770 10775 10779 10784 10788 10792 10796 10801 10805 10809 10813 10815 10818 10820 10822 10824 10826 10829 10832 10834 10836 10837 10838 10839 10840 10841 10842 10843 10845 10845 10846 10846 10846 10846 10846 10845 10845 10844 10843 10841 10840 10839 10838 10838 10837 10837 10836 10836 10835 10834 10833 10832 10831 10831 10830 10829 10828 10827 10826 10825 10823 10822 10821 10820 10819 10817 10816 10815 10813 10811 10809 10808 10806 10804 10802 10800 10798 10796 10794 10793 10791 10790 10788
10756 10759 10763 10768 10772 10776 10780 10784 10788 10792 10797 10801 10805 10808 10810 10812 10814 10816 10818 10821 10824 10826 10828 10830 10831 10831 10832 10834 10834 10835 10836 10836 10836 10837 10837 10837 10836 10836 10835 10834 10833 10832 10830 10830 10829 10828 10827 10826 10826 10825 10824 10823 10822 10821 10820 10819 10818 10817 10816 10815 10814 10813 10812 10811 10810 10808 10807 10805 10804 10802 10800 10798 10797 10796 10794 10793 10791 10789 10787 10785 10783 10781 10779 10777 10776
10749 10753 10757 10761 10765 10769 10772 10776 10779 10783 10787 10791 10794 10798 10800 10803 10805 10808 10810 10813 10815 10818 10820 10821 10823 10824 10824 10825 10826 10826 10826 10827 10827 10827 10827 10826 10826 10826 10825 10824 10823 10822 10821 10820 10819 10818 10817 10816 10815 10814 10813 10812 10811 10809 10808 10806 10805 10804 10803 10803 10802 10801 10799 10798 10797 10796 10794 10792 10790 10788 10786 10785 10784 10782 10780 10778 10777 10775 10773 10771 10769 10767 10765 10763 10761
10744 10747 10750 10754 10758 10762 10765 10768 10771 10774 10777 10780 10784 10787 10790 10793 10796 10798 10801 10803 10806 10808 10809 10811 10812 10813 10814 10815 10816 10816 10817 10817 10817 10817 10817 10816 10816 10815 10815 10814 10813 10812 10811 10810 10809 10807 10806 10805 10804 10803 10802 10800 10799 10797 10796 10794 10793 10792 10791 10790 10789 10788 10787 10785 10783 10782 10780 10778 10776 10773 10772 10771 10769 10767 10765 10763 10761 10759 10757 10755 10752 10750 10748 10746 10744
10739 10742 10744 10748 10751 10755 10758 10761 10764 10767 10769 10772 10775 10778 10781 10784 10787 10789 10791 10793 10795 10797 10798 10800 10801 10803 10804 10805 10806 10806 10807 10807 10807 10807 10807 10806 10806 10805 10804 10803 10802 10801 10800 10799 10798 10797 10795 10794 10792 10791 10790 10788 10786 10785 10783 10781 10780 10779 10778 10777 10777 10775 10773 10772 10770 10768 10765 10763 10760 10758 10757 10755 10753 10751 10749 10746 10744 10742 10740 10738 10736 10733 10730 10727 10725
10735 10737 10739 10742 10745 10748 10751 10754 10756 10759 10762 10765 10768 10771 10773 10775 10778 10780 10782 10783 10785 10787 10789 10790 10792 10793 10794 10795 10796 10797 10797 10797 10797 10797 10796 10795 10795 10794 10793 10792 10791 10790 10789 10788 10787 10785 10783 10782 10781 10779 10777 10776 10774 10772 10770 10768 10767 10766 10765 10764 10763 10761 10759 10757 10755 10752 10750 10747 10745 10743 10742 10740 10737 10735 10733 10731 10728 10726 10723 10721 10718 10715 10712 10708 10705
10730 10732 10734 10736 10739 10741 10744 10746 10749 10752 10754 10757 10760 10762 10764 10766 10769 10772 10773 10775 10777 10778 10779 10780 10782 10783 10784 10785 10786 10786 10787 10787 10787 10786 10785 10784 10784 10783 10782 10781 10779 10778 10777 10776 10774 10773 10771 10770 10768 10767 10764 10762 10760 10758 10756 10755 10753 10752 10751 10750 10748 10746 10744 10742 10739 10736 10734 10731 10729 10728 10726 10724 10721 10719 10716 10714 10711 10708 10705 10703 10700 10697 10694 10690 10687
10726 10727 10729 10730 10732 10734 10737 10739 10742 10744 10747 10749 10751 10754 10756 10758 10760 10762 10764 10765 10767 10768 10769 10770 10771 10772 10773 10773 10774 10775 10776 10776 10776 10775 10775 10774 10773 10772 10771 10770 10768 10767 10766 10764 10763 10761 10760 10758 10756 10754 10752 10750 10748 10745 10744 10742 10740 10739 10738 10736 10734 10731 10729 10727 10724 10721 10718 10715 10714 10712 10710 10707 10704 10702 10699 10697 10694 10691 10688 10685 10682 10679 10676 10672 10669
10721 10722 10723 10724 10726 10728 10730 10732 10734 10737 10739 10742 10744 10746 10747 10749 10750 10752 10753 10755 10756 10757 10758 10759 10760 10760 10761 10762 10763 10763 10764 10764 10764 10764 10763 10763 10762 10761 10759 10758 10757 10756 10754 10752 10751 10749 10748 10746 10744 10742 10739 10737 10735 10733 10731 10729 10727 10725 10724 10721 10719 10717 10714 10712 10709 10706 10703 10700 10698 10695 10692 10690 10687 10685 10682 10679 10676 10673 10670 10667 10663 10660 10656 10653 10649
10717 10718 10718 10719 10721 10722 10724 10726 10728 10729 10731 10733 10735 10737 10738 10739 10740 10742 10743 10744 10745 10746 10746 10747 10748 10748 10749 10750 10751 10751 10752 10752 10751 10751 10751 10750 10749 10747 10746 10745 10744 10742 10741 10740 10738 10736 10734 10733 10731 10729 10726 10724 10721 10719 10717 10715 10713 10711 10708 10706 10703 10701 10698 10695 10692 10689 10687 10684 10682 10679 10675 10672 10670 10667 10664 10661 10658 10654 10651 10647 10643 10640 10635 10631 10627
10714 10714 10715 10715 10716 10717 10719 10720 10721 10723 10724 10725 10726 10727 10729 10730 10731 10732 10733 10733 10734 10735 10735 10736 10736 10737 10737 10738 10738 10739 10739 10739 10739 10738 10737 10737 10736 10734 10733 10732 10730 10729 10728 10726 10725 10723 10721 10719 10717 10715 10712 10710 10707 10705 10702 10700 10698 10696 10693 10690 10687 10684 10682 10678 10675 10673 10670 10667 10665 10662 10658 10655 10652 10649 10645 10641 10638 10633 10629 10625 10621 10617 10612 10608 10603
10712 10712 10712 10712 10712 10712 10713 10714 10715 10716 10717 10718 10718 10719 10720 10721 10722 10722 10723 10724 10724 10725 10725 10725 10725 10726 10726 10727 10727 10727 10727 10727 10727 10726 10725 10724 10723 10721 10720 10719 10717 10716 10715 10713 10712 10710 10708 10705 10703 10701 10698 10696 10693 10691 10688 10686 10683 10680 10677 10674 10670 10667 10664 10661 10658 10655 10652 10649 10646 10642 10639 10635 10632 10629 10624 10620 10616 10612 10607 10602 10598 10593 10589 10584 10579
10709 10709 10709 10709 10709 10708 10709 10709 10709 10710 10710 10711 10711 10712 10713 10713 10714 10714 10715 10715 10715 10716 10716 10716 10716 10716 10716 10716 10716 10716 10716 10715 10715 10714 10713 10711 10710 10709 10708 10706 10705 10703 10701 10700 10698 10696 10694 10692 10689 10686 10684 10681 10679 10676 10674 10671 10668 10665 10661 10658 10654 10650 10647 10643 10640 10637 10634 10630 10626 10623 10619 10615 10611 10608 10604 10599 10594 10590 10585 10580 10575 10571 10566 10561 10556
10705 10705 10705 10705 10705 10705 10705 10705 10704 10704 10704 10704 10704 10705 10705 10705 10705 10705 10706 10706 10706 10706 10706 10706 10706 10706 10706 10706 10705 10705 10704 10703 10702 10701 10700 10699 10698 10696 10695 10693 10692 10690 10688 10686 10684 10682 10679 10677 10674 10672 10669 10667 10664 10661 10659 10655 10652 10649 10645 10641 10637 10634 10630 10626 10623 10619 10616 10612 10608 10604 10600 10596 10591 10587 10583 10578 10573 10568 10564 10559 10554 10549 10545 10539 10534
10700 10700 10701 10700 10700 10700 10700 10700 10700 10700 10699 10699 10699 10698 10698 10698 10697 10697 10697 10697 10696 10696 10696 10696 10696 10696 10695 10694 10693 10692 10691 10691 10690 10689 10688 10686 10684 10683 10682 10680 10678 10676 10674 10671 10669 10667 10665 10662 10660 10657 10655 10652 10649 10647 10644 10640 10636 10633 10629 10625 10621 10618 10614 10610 10606 10602 10598 10594 10590 10585 10581 10577 10572 10567 10563 10558 10553 10548 10543 10539 10534 10529 10524 10519 10514
10694 10694 10695 10695 10695 10695 10695 10694 10694 10694 10694 10693 10693 10692 10692 10691 10690 10690 10689 10689 10688 10688 10687 10687 10686 10685 10684 10683 10681 10680 10679 10678 10677 10675 10674 10672 10671 10669 10668 10666 10664 10662 10659 10657 10655 10653 10650 10648 10645 10643 10640 10638 10635 10632 10629 10625 10621 10617 10613 10609 10605 10602 10598 10595 10590 10586 10581 10576 10572 10567 10563 10558 10553 10548 10543 10539 10534 10530 10525 10520 10515 10510 10505 10500 10495
10688 10688 10688 10688 10688 10688 10688 10688 10688 10687 10687 10686 10685 10685 10684 10684 10683 10683 10682 10681 10680 10680 10679 10678 10677 10675 10674 10672 10671 10669 10667 10665 10664 10662 10661 10659 10657 10655 10653 10651 10650 10647 10645 10643 10641 10638 10636 10633 10631 10628 10626 10623 10620 10617 10613 10609 10606 10602 10598 10594 10590 10587 10583 10579 10574 10570 10565 10560 10555 10550 10545 10540 10536 10531 10526 10521 10516 10512 10507 10502 10497 10492 10487 10482 10477
10682 10681 10681 10681 10681 10681 10681 10681 10680 10680 10679 10678 10678 10677 10676 10676 10675 10674 10673 10672 10671 10670 10669 10668 10667 10665 10663 10661 10660 10658 10656 10654 10652 10650 10648 10646 10644 10642 10640 10638 10636 10634 10632 10629 10627 10625 10622 10620 10617 10615 10612 10609 10605 10602 10598 10595 10591 10588 10584 10580 10577 10572 10568 10564 10559 10554 10549 10544 10538 10533 10528 10523 10518 10513 10509 10504 10499 10494 10490 10485 10480 10475 10470 10465 10460
10675 10674 10674 10674 10674 10674 10674 10673 10672 10671 10671 10670 10670 10669 10668 10667 10666 10665 10664 10663 10662 10660 10659 10658 10656 10654 10652 10650 10648 10645 10643 10641 10639 10637 10635 10633 10631 10629 10627 10625 10623 10621 10619 10617 10614 10612 10609 10607 10604 10601 10599 10595 10592 10589 10585 10581 10577 10574 10570 10566 10562 10558 10553 10548 10543 10538 10533 10528 10523 10517 10512 10507 10502 10496 10492 10487 10482 10477 10473 10468 10464 10459 10454 10449 10444
10668 10667 10667 10667 10667 10666 10666 10665 10664 10663 10663 10662 10661 10660 10659 10658 10657 10656 10655 10654 10652 10651 10649 10647 10645 10643 10640 10638 10636 10633 10631 10629 10627 10625 10622 10620 10618 10616 10614 10612 10610 10608 10606 10604 10602 10599 10596 10594 10591 10588 10585 10582 10579 10575 10571 10567 10564 10560 10556 10552 10548 10543 10538 10533 10528 10523 10518 10513 10508 10502 10496 10491 10485 10480 10475 10471 10466 10461 10457 10453 10449 10444 10439 10435 10430